Torna al catalogo

COSMOS 1579 COOLANT

LostUNKNOWN
NORAD 27572·DEBRIS·🇷🇺 Russia

Lanciato Jun 29, 1984 da Baikonur Cosmodrome

Loading…

Prossimi Passaggi (prossime 24 ore)

TLE

ObsoletoSource: Space-Track

Epoca: Jan 23, 2018, 05:42 UTC

1 27572U 84069W   18023.23757616 -.00000024  00000-0  10000-3 0  9992
2 27572 101.2757  36.6114 0693755 353.1882   6.0487 11.29583020812775

Traccia COSMOS 1579 COOLANT in tempo reale con AllMySat

Download on the App Store